Location: Unspecified
(0.0000°N, 0.0000°E)
Time: 11:00:39
(UTC+00:00)

Explorer 11/Cluster Stage 4 - Pass Details

Date: 10 October 2020
Orbit: 467 x 1258 km, 28.8° (Epoch: 28 October)

Event Time Altitude Azimuth Distance (km) Brightness Sun altitude
Rises 17:13:46 0° 272° (W) 3,100 11.8 8.2°
Reaches altitude 10° 17:17:35 10° 299° (WNW) 1,995 9.7 7.3°
Maximum altitude 17:19:46 13° 328° (NNW) 1,697 8.7 6.7°
Drops below altitude 10° 17:21:47 10° 357° (N) 1,815 8.5 6.2°
Sets 17:24:57 0° 26° (NNE) 2,591 8.9 5.4°
